Wind_Speed
26 24 29 23 24 20 13 15 18 21 21 29 35 39 35 37 30 30 33 37 45 47 46 35 23 20 20 18 15 21 21 19 17 17 20 23 24 23 25 25 27 26 28 27
23 30 23 19 22 21 18 18 17 12 17 23 31 31 34 31 35 32 29 28 42 55 59 38 32 32 22 21 20 18 22 21 17 14 16 19 18 19 20 21 22 22 22 22
25 14 22 21 23 24 22 20 18 12 7 13 19 28 28 28 25 25 24 19 29 45 59 38 26 30 27 17 23 26 22 22 23 20 16 13 15 15 15 15 15 18 20 21
23 20 18 24 26 25 23 20 19 15 12 20 20 17 25 23 24 23 20 19 12 37 43 38 29 26 23 26 28 31 29 25 24 23 24 22 21 20 21 22 24 25 25 26
24 22 19 27 24 22 23 16 18 19 21 22 17 16 19 19 18 21 17 17 20 22 50 37 32 29 31 24 25 26 26 25 26 27 28 28 26 26 27 28 28 27 29 31
20 14 21 20 18 19 18 20 16 20 23 19 23 18 14 17 16 16 15 13 10 19 23 26 24 25 26 27 26 28 28 29 30 31 32 33 33 32 32 33 32 32 33 34
23 22 18 18 17 13 17 17 12 13 17 15 25 18 15 9 15 16 17 16 15 16 17 17 22 27 27 29 32 32 33 34 36 37 36 37 37 36 34 34 33 34 35 35
25 25 27 19 20 15 20 20 17 14 14 17 12 10 13 10 16 17 19 16 13 10 13 16 20 23 24 27 29 31 33 36 38 37 35 34 34 34 33 33 33 35 35 35
27 25 21 25 19 20 18 20 19 13 8 9 18 12 3 13 17 17 15 13 12 9 9 10 13 15 17 21 26 30 33 35 33 32 32 32 31 31 32 32 33 36 39 41
15 20 19 22 21 21 20 21 15 16 11 13 8 17 13 18 14 16 15 14 13 12 12 11 13 14 14 16 19 21 22 23 24 27 28 30 31 31 34 37 39 42 44 45
16 14 14 17 23 24 22 20 18 11 17 10 10 12 10 15 13 14 18 16 16 17 16 15 16 17 17 17 17 17 18 21 24 27 29 31 34 38 41 43 45 46 49 50
26 18 17 19 10 18 15 16 23 19 15 15 15 3 11 14 13 14 17 17 17 16 15 15 15 15 16 16 18 20 22 26 29 31 34 37 41 43 46 48 50 51 54 56
25 14 16 10 13 15 14 13 12 13 8 16 16 6 9 14 15 13 18 17 16 17 17 16 17 18 20 22 23 26 28 32 36 40 42 44 45 47 51 53 55 57 59 60
27 15 13 9 6 19 21 18 14 13 12 16 17 14 15 16 14 12 12 11 12 14 14 17 18 21 24 28 30 32 33 35 37 39 42 45 49 51 54 55 57 59 61 63
18 17 20 14 6 8 12 13 12 12 10 11 7 10 11 14 14 13 14 17 16 17 19 20 21 22 24 27 29 31 33 36 39 41 44 47 50 52 54 56 58 59 61 61
21 13 15 10 12 8 8 9 10 10 11 10 8 9 10 13 13 12 10 17 17 25 26 26 26 27 29 31 32 33 34 36 39 42 45 49 52 53 55 55 54 55 55 52
14 17 16 11 9 5 9 15 15 12 11 11 12 8 8 8 8 9 8 12 17 20 21 23 24 25 27 29 31 33 35 38 42 46 48 50 53 53 49 50 49 47 50 53
14 12 9 7 8 7 1 2 7 13 8 9 7 4 7 8 6 6 8 13 16 19 21 24 27 29 31 33 36 37 40 43 45 47 49 48 44 43 46 47 49 50 50 50
11 11 6 6 10 3 4 8 10 9 9 8 8 6 4 4 2 9 14 16 19 23 25 28 31 34 36 38 40 42 41 42 45 44 39 35 39 43 46 45 46 46 49 49
13 10 7 11 6 5 10 9 13 9 10 6 6 3 5 5 4 6 16 19 23 27 29 32 34 36 38 39 40 40 42 41 37 31 31 37 37 38 40 44 46 46 46 45
11 9 9 8 3 4 9 12 10 5 6 6 6 8 8 7 13 18 21 23 27 30 32 34 34 35 37 38 39 39 35 29 27 26 34 32 34 37 41 42 40 37 35 33
9 8 8 8 4 4 13 10 4 6 5 7 8 9 11 13 16 21 24 27 29 30 32 33 35 36 37 36 33 27 22 23 25 30 26 29 34 37 36 33 30 26 26 25
7 4 8 6 6 8 16 12 10 8 9 8 9 9 12 17 21 24 26 29 30 32 33 35 35 33 32 28 20 19 18 23 23 20 23 30 33 30 28 27 26 24 22 21
8 8 7 9 10 12 11 9 8 7 8 7 9 13 16 20 23 26 28 30 31 32 32 31 29 24 18 14 13 17 22 16 15 17 22 28 26 24 24 22 22 19 21 22
8 10 11 9 14 11 8 6 5 4 4 8 11 13 17 21 24 27 28 27 27 27 26 21 15 8 7 6 13 13 12 12 12 16 22 25 22 24 22 22 23 20 16 21
9 10 9 9 8 6 7 6 5 4 5 8 11 15 19 23 25 26 25 23 22 18 12 5 3 3 4 6 9 12 15 12 10 16 21 21 18 20 22 25 21 15 14 18
Wind_Direction
198 196 206 207 207 214 249 239 233 244 246 236 235 236 233 232 241 239 241 243 236 221 213 219 221 224 240 250 248 240 244 248 240 242 247 247 250 245 245 246 240 237 247 256
192 214 213 207 209 216 230 249 240 263 240 242 235 239 234 231 233 236 240 249 236 221 212 223 241 240 232 264 250 239 238 230 231 243 244 243 243 242 240 237 238 241 245 250
204 217 209 211 208 215 223 241 240 250 289 211 227 239 232 223 231 228 236 247 247 225 205 232 256 231 250 246 252 233 231 221 229 239 239 230 231 230 232 235 242 249 253 258
215 212 208 209 211 214 230 230 239 242 251 224 212 234 214 215 222 219 221 232 243 208 215 227 231 231 240 259 241 235 226 225 235 243 245 243 243 245 247 253 254 256 258 262
212 210 203 209 214 218 234 229 238 245 245 257 224 255 225 192 207 212 220 230 220 206 222 232 230 228 246 236 224 221 221 229 238 245 245 245 247 247 250 254 257 258 262 265
215 215 211 212 217 227 237 230 241 246 244 240 243 232 194 178 204 186 185 199 206 205 212 219 227 219 221 224 227 226 227 233 241 245 247 247 249 249 249 248 253 257 260 263
215 215 205 201 210 215 200 200 205 213 224 238 226 221 246 107 178 174 186 192 192 182 192 204 211 217 217 219 224 229 235 240 243 245 244 245 249 250 250 254 256 261 265 266
205 212 208 206 210 203 206 210 230 207 209 214 194 227 233 188 196 186 192 189 198 209 212 213 218 226 232 235 240 246 249 248 244 240 241 245 245 246 250 251 255 258 261 268
208 217 214 214 215 214 205 218 234 264 261 272 178 191 158 187 191 196 206 217 234 238 247 238 233 228 237 239 239 241 245 243 238 237 239 238 242 246 250 257 265 272 276 280
214 208 208 209 209 217 230 218 205 228 237 235 183 181 217 177 176 198 202 210 224 240 238 234 233 239 234 236 237 236 230 226 227 232 237 243 249 257 267 276 278 276 278 279
196 196 187 188 203 211 214 221 228 248 238 225 228 230 154 176 181 182 203 206 209 212 214 214 216 222 224 223 221 222 228 233 239 248 255 262 269 273 274 275 274 274 276 276
203 212 195 206 190 207 204 220 223 224 223 240 263 160 166 174 177 183 206 203 203 201 207 214 218 221 225 229 234 239 246 254 260 264 267 271 271 270 271 272 274 276 277 279
185 193 187 180 210 223 210 224 224 241 254 222 223 201 159 167 165 166 190 190 194 201 210 218 225 231 235 242 248 252 256 260 264 266 270 269 271 273 275 277 278 279 280 281
200 194 201 226 250 197 202 207 206 211 226 243 249 160 186 186 176 174 189 210 229 239 246 250 255 258 259 258 258 260 263 267 269 272 275 276 278 279 281 281 281 281 280 280
178 198 200 187 157 166 187 193 191 206 223 219 216 215 184 197 197 206 224 250 261 265 266 267 263 266 269 271 273 276 278 279 280 281 282 283 283 284 284 284 284 284 283 283
184 164 168 174 206 210 209 213 217 216 214 218 211 214 213 217 206 219 235 252 262 265 267 269 270 271 271 273 276 278 278 279 281 283 286 288 289 289 288 287 286 287 286 284
154 155 172 173 182 208 246 235 229 223 225 220 232 232 213 215 206 212 223 247 247 260 264 268 272 275 278 280 282 284 287 288 289 290 292 293 292 290 289 290 291 291 291 290
168 162 166 157 160 216 137 202 183 203 215 205 197 179 176 182 199 216 233 246 261 267 273 278 281 283 284 286 288 290 292 294 295 295 295 294 293 293 294 292 291 291 290 289
165 170 150 172 193 106 123 123 143 142 157 143 156 144 147 212 230 273 276 274 278 281 283 285 286 287 288 289 291 294 294 295 296 297 296 294 294 295 295 295 295 295 294 293
180 152 156 165 177 196 153 177 170 160 142 180 169 191 241 255 249 213 274 282 284 285 287 288 289 290 291 292 294 297 298 297 296 295 296 302 303 304 303 302 302 301 301 301
155 167 171 166 161 164 177 171 167 192 142 163 189 223 242 263 268 269 278 284 288 290 290 292 293 292 293 293 295 296 295 294 295 301 305 306 308 310 312 311 313 313 314 312
160 152 169 181 176 168 174 161 205 179 180 213 236 253 273 280 284 290 294 294 294 296 296 296 295 293 293 293 294 294 289 294 300 303 307 313 318 323 325 327 326 326 323 321
158 163 158 170 157 162 170 192 196 208 225 234 262 276 287 292 294 296 297 298 299 298 297 296 295 295 294 295 293 288 291 297 300 306 312 323 329 332 331 331 330 333 334 331
147 147 151 129 158 164 166 181 206 225 240 265 289 300 303 304 304 305 305 303 300 299 298 297 295 293 291 290 289 291 293 297 310 318 323 335 341 342 339 336 333 329 328 340
166 162 150 156 181 189 180 182 198 226 272 296 305 315 317 317 316 316 311 309 307 303 298 294 289 279 278 318 315 311 310 321 329 340 345 348 354 354 355 1 347 343 354 348
161 163 173 194 199 197 180 190 216 243 299 323 331 328 329 330 328 324 323 321 314 305 295 269 250 268 323 310 336 2 5 350 349 349 353 356 359 359 2 5 6 351 36 46
Height
3065 3070 3069 3074 3078 3080 3080 3081 3079 3080 3082 3083 3082 3084 3087 3091 3094 3096 3097 3100 3102 3107 3112 3119 3123 3123 3129 3132 3135 3137 3140 3142 3143 3143 3144 3144 3144 3145 3146 3147 3148 3149 3150 3151
3065 3062 3069 3073 3075 3078 3080 3079 3076 3075 3076 3076 3078 3079 3081 3083 3085 3087 3088 3089 3087 3094 3105 3109 3112 3120 3125 3127 3130 3133 3136 3138 3139 3139 3139 3139 3140 3140 3140 3141 3142 3144 3145 3145
3057 3061 3066 3069 3071 3074 3074 3076 3074 3073 3073 3073 3075 3073 3074 3076 3078 3080 3083 3081 3077 3079 3096 3105 3108 3112 3114 3118 3123 3125 3126 3129 3132 3134 3134 3135 3136 3136 3136 3137 3138 3140 3140 3140
3056 3059 3060 3063 3065 3069 3069 3072 3073 3072 3074 3068 3070 3060 3065 3069 3072 3075 3077 3077 3076 3078 3091 3099 3106 3108 3110 3114 3116 3119 3122 3125 3126 3128 3129 3130 3132 3131 3132 3133 3132 3133 3134 3135
3050 3052 3056 3058 3060 3064 3065 3068 3070 3071 3070 3067 3065 3062 3051 3062 3067 3070 3073 3073 3075 3079 3086 3090 3095 3099 3105 3108 3111 3114 3117 3120 3120 3121 3123 3125 3125 3124 3125 3126 3126 3127 3128 3128
3047 3049 3052 3054 3058 3059 3062 3065 3066 3068 3067 3063 3060 3060 3052 3055 3062 3067 3070 3068 3071 3074 3080 3086 3090 3094 3099 3104 3107 3111 3112 3112 3113 3114 3115 3116 3117 3117 3117 3117 3118 3118 3119 3119
3042 3044 3047 3050 3053 3055 3058 3060 3058 3060 3058 3054 3054 3059 3053 3054 3059 3066 3066 3068 3072 3074 3078 3082 3087 3091 3094 3096 3101 3103 3104 3105 3106 3107 3108 3108 3109 3110 3110 3110 3110 3112 3113 3113
3034 3038 3040 3043 3047 3049 3052 3053 3046 3045 3043 3044 3053 3053 3052 3056 3059 3063 3065 3068 3072 3074 3078 3080 3083 3086 3089 3091 3093 3095 3095 3096 3097 3098 3099 3100 3102 3102 3104 3104 3105 3106 3105 3104
3027 3032 3035 3040 3043 3046 3046 3048 3048 3046 3044 3040 3042 3052 3055 3054 3059 3061 3063 3065 3068 3071 3074 3075 3077 3080 3081 3084 3086 3086 3088 3089 3090 3092 3093 3095 3097 3098 3098 3098 3098 3097 3095 3093
3023 3027 3031 3036 3040 3042 3042 3044 3047 3045 3042 3040 3040 3045 3047 3054 3058 3060 3062 3063 3066 3069 3072 3072 3074 3075 3077 3078 3078 3080 3081 3083 3085 3088 3090 3091 3092 3091 3090 3088 3087 3087 3084 3081
3020 3023 3029 3031 3033 3035 3040 3040 3040 3041 3040 3039 3039 3044 3046 3053 3057 3058 3059 3061 3063 3066 3068 3069 3070 3071 3073 3074 3074 3077 3078 3080 3082 3085 3085 3084 3083 3081 3079 3078 3076 3074 3070 3069
3016 3020 3024 3027 3027 3030 3032 3035 3035 3038 3039 3041 3039 3043 3048 3050 3053 3055 3056 3059 3061 3062 3065 3067 3067 3068 3070 3071 3074 3076 3077 3076 3076 3076 3076 3074 3074 3071 3069 3066 3063 3060 3057 3054
3010 3015 3021 3025 3029 3028 3031 3033 3034 3035 3038 3037 3039 3043 3046 3048 3051 3053 3055 3057 3058 3061 3063 3063 3064 3066 3067 3068 3067 3069 3069 3068 3068 3068 3066 3065 3062 3059 3056 3052 3049 3045 3041 3038
3006 3011 3013 3016 3019 3023 3027 3030 3034 3037 3040 3041 3041 3042 3045 3049 3050 3052 3053 3055 3057 3058 3059 3060 3061 3061 3061 3062 3062 3062 3061 3059 3058 3057 3055 3052 3049 3045 3040 3037 3033 3028 3025 3021
3003 3007 3012 3016 3020 3021 3023 3027 3030 3033 3036 3038 3038 3042 3044 3048 3050 3052 3052 3053 3054 3053 3054 3054 3055 3054 3053 3053 3053 3051 3050 3048 3046 3044 3042 3038 3034 3029 3025 3021 3017 3012 3006 3001
2999 3005 3009 3013 3018 3021 3023 3025 3027 3030 3033 3036 3039 3041 3043 3044 3046 3047 3048 3047 3048 3047 3047 3047 3046 3045 3045 3044 3043 3042 3041 3038 3035 3032 3029 3025 3020 3015 3010 3004 2999 2993 2989 2984
2997 3002 3008 3011 3016 3019 3021 3020 3023 3027 3030 3033 3036 3037 3037 3039 3041 3042 3042 3042 3042 3042 3042 3041 3040 3039 3038 3036 3035 3033 3031 3028 3025 3021 3016 3011 3005 2999 2994 2989 2983 2978 2973 2968
2995 3001 3006 3009 3014 3014 3015 3015 3018 3023 3027 3029 3031 3031 3034 3036 3035 3036 3036 3036 3036 3036 3035 3034 3032 3031 3029 3027 3025 3022 3019 3016 3011 3007 3002 2996 2991 2986 2981 2976 2970 2964 2958 2952
2996 2999 3004 3009 3010 3014 3015 3017 3019 3022 3026 3027 3029 3030 3031 3032 3034 3031 3031 3031 3030 3029 3028 3026 3024 3022 3020 3017 3014 3011 3008 3004 2999 2994 2990 2986 2981 2976 2970 2963 2956 2950 2943 2937
2994 2998 3004 3008 3011 3010 3013 3015 3016 3019 3022 3024 3026 3026 3027 3029 3032 3027 3026 3026 3024 3022 3020 3017 3015 3012 3009 3006 3003 3000 2996 2992 2988 2984 2981 2977 2970 2964 2957 2950 2943 2935 2928 2921
2995 3000 3003 3006 3009 3012 3011 3013 3016 3019 3024 3020 3021 3022 3022 3024 3024 3023 3021 3019 3016 3014 3011 3009 3006 3003 2999 2996 2993 2990 2986 2983 2980 2976 2973 2968 2962 2954 2946 2938 2931 2923 2916 2911
2995 2999 3003 3006 3009 3011 3010 3014 3017 3017 3017 3018 3019 3019 3019 3019 3018 3016 3014 3011 3008 3006 3003 3000 2997 2993 2990 2987 2984 2980 2978 2976 2973 2970 2966 2961 2954 2945 2937 2931 2925 2919 2912 2906
2996 2998 3000 3005 3006 3006 3008 3010 3013 3014 3015 3016 3016 3016 3015 3014 3013 3010 3007 3004 3000 2996 2993 2989 2986 2983 2979 2977 2975 2974 2972 2970 2968 2965 2960 2954 2948 2940 2933 2927 2921 2915 2909 2903
2994 2996 2999 3002 3005 3005 3007 3009 3011 3012 3013 3013 3013 3012 3011 3009 3007 3004 3000 2996 2991 2987 2983 2980 2977 2975 2972 2971 2970 2969 2967 2965 2963 2959 2955 2950 2943 2937 2930 2924 2917 2911 2905 2900
2994 2997 3000 3000 3002 3004 3006 3008 3010 3011 3011 3011 3011 3009 3007 3004 3001 2996 2991 2986 2981 2977 2974 2972 2970 2969 2968 2968 2967 2964 2962 2960 2958 2955 2951 2945 2939 2934 2928 2921 2913 2908 2904 2898
2994 2997 3000 3000 3001 3003 3005 3007 3008 3009 3009 3009 3007 3005 3002 2999 2994 2989 2983 2978 2974 2971 2969 2968 2967 2967 2967 2966 2964 2961 2959 2957 2954 2952 2948 2942 2938 2933 2926 2919 2913 2908 2905 2902